Regional Weather Roundup
Issued by NWS

Home | Current Version | Previous Version | Text Only | Print | Product List | Glossary On
Versions: 1 2 3 4 5 6 7 8 9 10 11 12 13 14 15 16 17 18 19 20 21 22 23 24 25 26 27 28 29 30 31 32 33 34 35 36 37 38 39 40 41 42 43 44 45 46 47 48 49 50
000
ASUS46 KPQR 291010
RWROR

OREGON REGIONAL WEATHER ROUNDUP
NATIONAL WEATHER SERVICE PORTLAND OR
300 AM PDT FRI AUG 29 2014

NOTE: "FAIR" INDICATES FEW OR NO CLOUDS BELOW 12,000 FEET WITH
NO SIGNIFICANT WEATHER AND/OR OBSTRUCTIONS TO VISIBILITY.

ORZ001>013-291100-
NORTHWEST OREGON


CITY           SKY/WX    TMP DP  RH WIND       PRES   REMARKS
ASTORIA        CLOUDY    60  58  92 W6        30.01S FOG
NEWPORT        FOG       55  55 100 CALM      30.06S VSB 1/2
PORTLAND       FAIR      64  60  87 W3        29.99F
VANCOUVER WA   FAIR      64  59  83 CALM      29.99S
SCAPPOOSE      FAIR      63  58  83 NW5       29.98F
HILLSBORO      FAIR      61  58  90 W3        29.99S
AURORA         FAIR      62  58  86 CALM      30.00S
MCMINNVILLE    FAIR      60  57  89 W3        30.00F
SALEM          FAIR      61  55  81 CALM      29.99R
CORVALLIS      FAIR      61  57  88 NW12      30.01R
EUGENE         FAIR      59  52  77 S5        30.00F
$$

ORZ021-028-291100-
SOUTHWEST OREGON


CITY           SKY/WX    TMP DP  RH WIND       PRES   REMARKS
NORTH BEND     CLOUDY    57  57 100 W5        30.05S
BROOKINGS      FOG       55  55 100 E3        30.00S VSB 1/4
ROSEBURG       FAIR      64  50  60 NW3       30.01R
SEXTON SUMMIT  FAIR      60  49  66 N8        30.08F
MEDFORD        FAIR      69  47  45 N3        29.98S
$$

ORZ009-041-291100-
COLUMBIA GORGE


CITY           SKY/WX    TMP DP  RH WIND       PRES   REMARKS
TROUTDALE      MOCLDY    65  60  84 CALM      29.98S
THE DALLES     FAIR      67  55  65 NW9       29.93S
$$

ORZ029>031-042>050-061>064-291100-
EASTERN OREGON


CITY           SKY/WX    TMP DP  RH WIND       PRES   REMARKS
REDMOND        FAIR      50  42  74 S3        30.05S
BEND           FAIR      54  45  71 CALM      30.08S
KLAMATH FALLS  CLOUDY    54  45  71 CALM      30.10F
LAKEVIEW       FAIR      54  37  54 NW5       30.14S
HERMISTON      FAIR      63  51  65 CALM      29.93S
PENDLETON      FAIR      61  37  41 SE7       29.96F
JOHN DAY       FAIR      62  38  40 SW3       30.07S
MEACHAM        FAIR      39  33  79 CALM      30.07F
LA GRANDE      FAIR      48  27  43 CALM      30.02F
BAKER CITY     FAIR      46  39  76 NW3       30.05S
BURNS          FAIR      53  36  52 W8        30.08S
ROME             N/A     59  31  34 SE3       30.04S
ONTARIO        FAIR      70  36  28 NW3       29.96R
$$


USA.gov is the U.S. government's official web portal to all federal, state and local government web resources and services.